This demonstration page uses our WeatherBlox Daily Observations layout. Learn more.

Left ArrowRight Arrow

38.80484, -77.04692

Hourly Observations for May 6, 2015

Temp ( °F °C ) Dew Point ( °F °C ) Humidity (%) Winds ( mph kmh ) Pressure ( in mb ) Visibility ( mi km ) Precip ( " mm )
12:52 am 00:52 Partly Cloudy 66 18.9 61 16.1 84 84 SSW 6 9 30.23 1024 10 16 N/A
1:52 am 01:52 Partly Cloudy 66 18.9 62 16.7 87 87 SSW 7 11 30.22 1023 10 16 N/A
2:52 am 02:52 Mostly Cloudy 66 18.9 61 16.1 84 84 S 3 6 30.20 1023 10 16 N/A
3:52 am 03:52 Mostly Cloudy 65 18.3 62 16.7 90 90 SSW 3 6 30.20 1023 9 14 N/A
4:52 am 04:52 Mostly Cloudy 65 18.3 61 16.1 87 87 S 5 7 30.19 1023 8 13 N/A
5:52 am 05:52 Partly Cloudy 64 17.8 61 16.1 90 90 N N/A 30.19 1023 8 13 N/A
6:52 am 06:52 Partly Cloudy 65 18.3 62 16.7 90 90 N N/A 30.20 1023 7 11 N/A
7:52 am 07:52 Partly Cloudy 67 19.4 63 17.2 87 87 N N/A 30.22 1023 7 11 N/A
8:52 am 08:52 Partly Cloudy 70 21.1 63 17.2 79 79 N N/A 30.23 1024 10 16 N/A
9:52 am 09:52 Partly Cloudy 73 22.8 64 17.8 74 74 N N/A 30.22 1023 9 14 N/A
10:52 am 10:52 Partly Cloudy 78 25.6 64 17.8 62 62 ENE 9 15 30.22 1023 10 16 N/A
11:52 am 11:52 Partly Cloudy 80 26.7 65 18.3 60 60 NE 8 13 30.22 1023 10 16 N/A
12:52 pm 12:52 Mostly Sunny 81 27.2 64 17.8 57 57 E 5 7 30.20 1023 10 16 N/A
1:52 pm 13:52 Partly Cloudy 82 27.8 65 18.3 56 56 E 7 11 30.18 1022 10 16 N/A
2:52 pm 14:52 Partly Cloudy 83 28.3 64 17.8 53 53 E 7 11 30.17 1022 10 16 N/A
3:52 pm 15:52 Mostly Cloudy 79 26.1 63 17.2 58 58 E 9 15 30.16 1021 10 16 N/A
4:52 pm 16:52 Mostly Cloudy 80 26.7 63 17.2 56 56 ESE 7 11 30.15 1021 10 16 N/A
5:14 pm 17:14 Mostly Cloudy with Light Rain 81 27 63 17 54 54 E 7 11 30.15 1021 10 16 N/A
5:33 pm 17:33 Mostly Cloudy 79 26 63 17 58 58 ESE 8 13 30.15 1021 10 16 N/A
5:52 pm 17:52 Mostly Cloudy 79 26.1 62 16.7 56 56 SE 10 17 30.14 1021 10 16 N/A
6:52 pm 18:52 Mostly Cloudy 78 25.6 61 16.1 56 56 E 5 7 30.16 1021 10 16 N/A
7:52 pm 19:52 Mostly Cloudy 77 25 60 15.6 56 56 ESE 13 20 30.13 1020 10 16 N/A
8:52 pm 20:52 Cloudy 75 23.9 61 16.1 62 62 E 9 15 30.18 1022 10 16 N/A
9:52 pm 21:52 Mostly Cloudy 72 22.2 58 14.4 61 61 E 6 9 30.20 1023 10 16 N/A
10:52 pm 22:52 Mostly Cloudy 71 21.7 56 13.3 59 59 E 5 7 30.22 1023 10 16 N/A
11:52 pm 23:52 Mostly Cloudy 68 20 55 12.8 63 63 SE 6 9 30.20 1023 10 16 N/A

Powered by AerisWeather